TECHSAT 1B (GO-32)
Last updated on Mon Sep 21 2026 00:02:45 GMT+0000 (Coordinated Universal Time)
1 25397U 98043D 26263.45383155 .00000021 00000+0 29191-4 0 9991
2 25397 99.0159 258.6540 0000734 359.3755 0.7421 14.24443467464896
Next 0 passes for location: London (51.5072 / 0.1276)
No passes found over London.